Simultaneous Nadir Overpasses (SNOs) Predictions

Prediction of SNOs over PacNW region [( 10.00, 139.50) to ( 22.70, 165.60)] between AQUA and NPP Satellites:

Table of predicted SNOs over PacNW region for the next 30.0 days since TLE Epoch: 8/18/2013
Index Date (AQUA) Time (AQUA) AQUA Lat,Lon Date (NPP) Time (NPP) NPP Lat,Lon Distance(km) Time Diff (sec)
1 08/20/2013 03:32:00 22.65, 147.47 08/20/2013 03:28:31 25.95, 144.89 451.08 209
2 08/25/2013 15:59:33 22.61, 147.44 08/25/2013 16:02:11 23.25, 144.54 305.26 158
3 09/02/2013 15:09:58 22.59, 159.82 09/02/2013 15:11:36 23.21, 157.20 277.33 98
4 09/05/2013 03:31:45 22.68, 147.52 09/05/2013 03:28:16 23.91, 145.38 258.01 209
5 09/10/2013 15:59:12 22.60, 147.50 09/10/2013 16:02:29 23.27, 144.51 315.78 197
6 09/13/2013 02:42:05 22.69, 159.92 09/13/2013 02:38:35 27.14, 157.21 564.90 210




NCC Satellite Simultaneous Nadir Overpasses (SNOs) Prediction Service
